Watauga Observed Data For Previous 48 Hours

Caption
Day and Hour Reservoir Elevation (behind dam)* Tailwater Elevation (below dam)* Average Hourly Discharge*
1/15/2019 2 AM EST 1,957.01 1,651.15 2,477
1/15/2019 3 AM EST 1,957.00 1,651.15 2,476
1/15/2019 4 AM EST 1,956.99 1,651.14 2,478
1/15/2019 5 AM EST 1,956.97 1,651.17 2,479
1/15/2019 6 AM EST 1,956.96 1,651.15 2,477
1/15/2019 7 AM EST 1,956.94 1,651.15 2,475
1/15/2019 8 AM EST 1,956.91 1,651.15 2,475
1/15/2019 9 AM EST 1,956.91 1,651.16 2,478
1/15/2019 10 AM EST 1,956.89 1,651.16 2,479
1/15/2019 11 AM EST 1,956.88 1,651.16 2,481
1/15/2019 12 PM EST 1,956.85 1,651.13 2,476
1/15/2019 1 PM EST 1,956.84 1,651.15 2,476
1/15/2019 2 PM EST 1,956.82 1,651.15 2,475
1/15/2019 3 PM EST 1,956.80 1,651.15 2,478
1/15/2019 4 PM EST 1,956.79 1,651.14 2,489
1/15/2019 5 PM EST 1,956.78 1,651.15 2,477
1/15/2019 6 PM EST 1,956.76 1,651.15 2,489
1/15/2019 7 PM EST 1,956.73 1,651.15 2,487
1/15/2019 8 PM EST 1,956.73 1,651.15 2,493
1/15/2019 9 PM EST 1,956.72 1,651.15 2,487
1/15/2019 10 PM EST 1,956.68 1,651.15 2,481
1/15/2019 11 PM EST 1,956.67 1,651.15 2,475
1/16/2019 12 AM EST 1,956.66 1,651.15 2,481
1/16/2019 1 AM EST 1,956.64 1,651.15 2,481
1/16/2019 2 AM EST 1,956.62 1,651.15 2,484
1/16/2019 3 AM EST 1,956.60 1,651.15 2,477
1/16/2019 4 AM EST 1,956.58 1,651.13 2,483
1/16/2019 5 AM EST 1,956.57 1,651.15 2,481
1/16/2019 6 AM EST 1,956.55 1,651.16 2,476
1/16/2019 7 AM EST 1,956.52 1,651.15 2,482
1/16/2019 8 AM EST 1,956.50 1,651.16 2,482
1/16/2019 9 AM EST 1,956.49 1,651.15 2,482
1/16/2019 10 AM EST 1,956.47 1,651.15 2,492
1/16/2019 11 AM EST 1,956.46 1,651.15 2,492
1/16/2019 12 PM EST 1,956.45 1,651.15 2,484
1/16/2019 1 PM EST 1,956.41 1,651.16 2,489
1/16/2019 2 PM EST 1,956.40 1,651.15 2,483
1/16/2019 3 PM EST 1,956.38 1,651.16 2,487
1/16/2019 4 PM EST 1,956.37 1,651.15 2,486
1/16/2019 5 PM EST 1,956.35 1,651.16 2,485
1/16/2019 6 PM EST 1,956.33 1,651.15 2,494
1/16/2019 7 PM EST 1,956.31 1,651.16 2,493
1/16/2019 8 PM EST 1,956.30 1,651.15 2,493
1/16/2019 9 PM EST 1,956.28 1,651.15 2,488
1/16/2019 10 PM EST 1,956.26 1,651.15 2,485
1/16/2019 11 PM EST 1,956.25 1,651.14 2,493
1/17/2019 12 AM EST 1,956.21 1,651.16 2,491
1/17/2019 1 AM EST 1,956.21 1,651.15 2,485
1/17/2019 2 AM EST 1,956.18 1,651.15 2,487
1/17/2019 3 AM EST 1,956.16 1,651.15 2,488
1/17/2019 4 AM EST 1,956.13 1,651.14 2,492
1/17/2019 5 AM EST 1,956.13 1,651.15 2,486
1/17/2019 6 AM EST 1,956.09 1,651.15 2,478
1/17/2019 7 AM EST 1,956.09 1,651.15 2,486
1/17/2019 8 AM EST 1,956.07 1,651.14 2,486
1/17/2019 9 AM EST 1,956.04 1,651.15 2,484
1/17/2019 10 AM EST 1,956.04 1,651.15 2,490
1/17/2019 11 AM EST 1,956.01 1,651.15 2,487
1/17/2019 12 PM EST 1,956.01 1,651.14 2,488
1/17/2019 1 PM EST 1,955.97 1,651.15 2,486
1/17/2019 2 PM EST 1,955.95 1,651.15 2,480
1/17/2019 3 PM EST 1,955.95 1,651.15 2,487
1/17/2019 4 PM EST 1,955.92 1,651.15 2,484
1/17/2019 5 PM EST 1,955.91 1,651.11 2,486
1/17/2019 6 PM EST 1,955.89 1,651.15 2,483
1/17/2019 7 PM EST 1,955.87 1,651.15 2,485
1/17/2019 8 PM EST 1,955.85 1,651.15 2,478
1/17/2019 9 PM EST 1,955.83 1,651.15 2,484
1/17/2019 10 PM EST 1,955.82 1,651.15 2,481
1/17/2019 11 PM EST 1,955.80 1,651.15 2,478

Elevations are in feet above sea level. Discharges are in cubic feet per second and are reported at the end of the hour.